GFSNE_500_spd_063.txt.gz
Wind_Speed
26 31 34 36 37 38 39 41 43 46 49 52 52 53 56 56 57 60 60 63 65 67 70 71 74 77 81 83 87 91 94 95 98 96 91 82 76 70
33 36 37 38 38 38 40 44 47 50 52 54 55 56 56 58 60 62 63 66 67 70 72 76 78 81 84 88 92 94 96 98 93 88 82 75 69 65
39 39 39 39 40 42 44 48 52 54 56 57 59 58 58 61 63 65 67 68 71 74 77 79 82 84 87 91 96 96 96 94 84 78 77 71 63 62
39 40 41 41 43 45 48 52 55 58 59 59 58 60 61 63 65 67 69 71 74 78 81 83 86 88 91 95 95 95 88 81 74 74 73 64 58 58
41 41 42 43 46 49 53 56 59 60 59 60 61 63 66 68 68 70 71 74 79 83 85 87 89 91 93 93 92 89 80 74 77 70 70 64 60 58
42 42 44 47 50 55 57 60 61 59 61 63 64 66 69 71 75 75 74 79 84 85 87 90 93 95 95 92 89 82 72 69 55 68 65 63 61 54
44 45 47 51 55 59 62 63 61 61 63 65 68 70 73 77 78 78 78 83 85 86 89 93 95 98 96 89 82 74 68 64 63 61 62 61 57 48
46 48 52 55 59 61 63 65 64 66 67 68 69 72 75 78 80 83 86 90 90 92 98 101 103 104 94 83 74 67 64 64 61 54 56 52 46 42
50 52 56 59 61 64 67 66 67 68 69 72 72 74 75 79 83 86 90 93 96 99 105 105 103 100 83 73 65 61 60 59 51 48 46 43 40 37
54 57 60 63 68 68 67 68 68 71 74 77 78 77 79 82 86 90 93 97 99 102 106 109 100 87 73 64 59 60 57 50 43 39 38 37 35 32
59 61 63 69 69 70 69 68 71 74 77 78 78 79 81 85 90 93 95 100 103 102 103 104 87 76 65 58 57 57 47 45 40 37 36 34 30 28
62 64 70 72 71 70 71 74 77 79 79 79 79 80 82 86 90 94 97 101 105 106 98 93 77 69 63 57 56 45 39 43 43 43 37 32 27 26
66 69 74 77 75 73 74 77 80 82 84 84 83 83 85 88 92 94 99 104 105 103 89 81 69 64 60 55 48 31 40 45 44 41 34 28 25 26
71 75 75 74 74 74 77 82 86 89 89 87 86 85 87 91 93 97 100 101 100 92 79 73 67 60 54 42 38 37 42 45 45 34 28 23 24 25
76 68 70 74 77 81 86 88 89 90 87 85 84 86 90 92 97 98 98 97 87 79 74 68 60 49 41 34 36 40 42 41 31 26 23 22 23 24
69 77 79 82 85 87 88 89 89 87 85 85 87 90 92 97 98 98 94 85 76 70 68 61 48 36 32 29 32 32 33 30 25 22 19 22 22 23
80 82 85 86 87 89 89 88 85 85 86 88 90 93 96 97 95 91 83 75 70 66 59 48 38 27 23 20 19 24 28 24 23 20 20 22 23 21
87 87 87 88 89 89 87 85 85 86 88 90 94 97 96 93 87 80 74 70 65 61 48 38 29 21 22 20 23 28 27 22 20 19 21 22 22 19
88 87 87 87 87 87 86 86 87 88 92 95 96 96 92 87 79 72 68 66 60 51 38 30 27 23 23 24 30 31 28 20 18 21 20 21 21 17
85 86 86 86 86 86 87 88 90 94 96 96 95 91 86 78 71 67 66 63 52 40 31 26 31 32 31 31 36 32 23 18 18 20 19 18 18 18
84 84 84 85 86 87 89 93 95 97 97 94 89 84 78 71 67 65 61 58 43 32 26 31 23 23 31 30 27 24 17 17 18 19 18 17 17 18
82 84 85 87 89 93 96 98 98 96 92 87 82 76 72 68 65 63 57 47 33 30 27 23 24 21 16 18 21 20 17 17 18 18 18 17 17 16
85 88 91 94 97 99 99 97 93 88 85 80 76 72 69 67 62 58 49 38 30 31 33 33 28 24 21 21 21 19 19 17 17 17 16 16 16 16

GFSNE_500_spd_069.txt.gz
Wind_Speed
31 38 44 37 43 44 37 39 39 38 41 40 43 43 42 44 47 51 53 56 56 58 59 61 63 64 63 65 68 69 70 72 75 77 80 84 87 92
36 39 37 42 44 42 37 37 39 43 43 43 44 44 45 49 51 53 56 59 60 61 61 63 63 64 67 70 70 69 71 75 77 80 82 85 90 94
38 40 36 49 50 46 42 42 42 45 46 45 46 47 49 52 53 57 60 63 62 62 63 65 66 67 70 72 71 73 77 78 79 81 83 87 91 93
38 44 42 47 45 43 43 44 45 46 46 47 48 49 51 54 57 61 63 62 64 66 66 66 68 70 72 75 77 79 79 79 80 83 86 90 93 93
45 47 39 42 44 44 43 46 48 47 48 50 51 53 54 55 60 62 65 67 68 68 69 71 73 74 78 78 79 79 79 81 83 85 89 93 96 87
48 43 42 43 44 45 47 49 51 53 52 54 54 56 57 61 64 66 69 70 69 70 69 72 76 78 79 80 79 79 80 82 84 90 95 97 94 74
38 44 43 43 44 47 50 53 54 55 55 56 58 59 61 64 68 70 74 68 67 70 73 76 78 79 80 80 78 80 84 86 90 95 98 96 83 66
37 40 43 46 48 51 55 55 56 57 57 58 60 62 66 69 71 75 72 69 73 76 78 79 81 82 84 84 84 86 88 91 95 97 95 85 71 59
44 44 46 48 52 56 56 56 56 57 58 61 64 67 68 71 75 76 72 76 79 81 83 82 84 85 86 85 86 88 92 95 97 96 87 74 66 54
46 47 50 54 56 56 57 59 59 60 63 65 67 69 73 76 73 74 79 81 83 84 85 83 86 85 85 86 88 91 96 97 95 86 74 65 60 44
48 49 54 61 58 58 59 61 61 63 66 68 71 75 73 73 77 81 84 86 86 85 85 87 86 86 85 88 90 94 97 96 86 73 63 55 42 37
51 49 62 61 59 60 62 63 65 67 69 72 72 75 78 81 83 85 86 86 88 88 86 86 87 90 90 88 92 95 93 85 71 61 55 42 30 33
45 61 59 60 62 63 65 66 69 72 75 74 76 80 82 85 87 88 89 89 87 85 86 88 87 89 93 93 90 88 81 70 62 55 42 27 27 34
61 62 63 64 65 66 68 71 75 75 76 77 82 85 87 88 90 90 89 86 85 84 85 89 90 90 93 91 85 74 68 60 53 43 27 25 28 28
63 64 65 67 69 70 74 76 74 76 78 82 85 87 88 90 89 88 85 85 85 85 87 88 90 91 90 81 72 65 61 53 42 31 23 22 27 29
65 66 69 71 74 75 75 74 76 79 83 86 88 89 91 91 88 86 87 87 88 87 88 90 91 90 79 71 67 61 55 46 34 27 18 18 22 22
68 70 72 74 75 77 76 76 81 86 89 91 91 90 88 87 88 89 90 92 91 90 89 90 87 81 72 65 60 56 49 40 27 20 15 16 18 16
69 69 71 73 76 76 78 85 86 89 91 90 87 87 89 90 91 93 94 94 93 93 91 83 76 71 66 61 55 47 40 33 25 20 18 19 20 15
68 70 70 72 75 81 86 89 90 90 86 86 89 91 93 95 96 96 97 97 97 93 85 78 71 66 60 55 50 40 36 30 25 21 21 20 21 16
71 74 77 80 83 86 86 84 83 86 89 92 95 97 99 99 99 100 99 96 90 83 74 70 66 61 54 46 41 35 30 25 22 24 25 24 20 18
79 82 85 84 83 82 83 86 90 93 96 98 100 101 102 102 100 98 95 90 83 77 71 66 62 53 48 42 32 26 27 29 30 30 29 20 19 18
82 83 83 84 85 87 90 93 96 98 100 102 103 103 102 100 96 90 86 81 78 73 67 60 56 47 41 34 25 22 20 21 24 22 20 18 18 16
84 84 86 88 91 93 95 98 100 102 103 103 101 99 95 91 89 87 84 80 74 68 64 56 48 42 33 27 26 24 17 16 16 17 18 18 18 15

GFSNE_500_spd_072.txt.gz
Wind_Speed
32 35 35 35 38 40 40 39 44 42 38 42 44 44 45 47 48 47 48 49 50 52 54 57 60 61 61 63 64 66 67 68 70 70 74 76 77 78
33 34 37 37 42 43 42 38 39 45 51 46 43 46 48 47 49 50 49 52 54 56 58 59 61 63 67 67 66 67 69 69 72 76 77 77 77 77
36 38 40 42 43 45 44 42 49 49 46 46 44 48 49 50 50 52 53 54 57 60 63 65 67 69 72 68 67 67 70 73 77 77 77 77 76 74
38 37 39 46 47 41 46 48 48 45 46 44 47 49 52 53 53 54 56 58 61 64 66 69 72 73 72 68 69 72 74 77 78 77 77 79 81 81
43 48 47 47 51 46 46 50 47 45 47 46 51 53 54 55 56 58 60 62 64 67 69 72 74 76 71 72 74 77 79 81 81 79 80 81 82 84
52 51 45 49 44 31 39 42 44 45 46 49 54 55 57 59 60 62 63 65 67 70 71 74 78 73 74 78 81 82 82 82 82 81 81 82 84 86
38 45 48 41 52 49 46 50 49 50 53 55 57 59 61 63 63 64 65 67 69 72 74 76 73 76 79 82 83 82 83 83 82 83 84 85 88 90
35 36 38 39 40 46 48 52 52 54 56 59 61 62 63 64 64 65 66 69 73 72 72 74 78 80 82 82 82 84 85 84 83 85 86 88 92 95
39 40 42 43 46 48 50 53 55 58 58 61 64 65 66 66 68 69 70 74 74 74 77 79 82 83 84 84 84 84 83 84 86 88 88 92 95 93
40 42 45 47 48 51 53 53 59 64 61 66 69 68 69 69 71 73 75 75 75 78 82 84 86 86 85 86 85 84 85 87 90 91 91 95 93 80
43 45 48 50 53 55 55 54 61 64 72 73 72 71 71 73 75 76 77 78 79 82 87 88 89 88 87 84 84 86 89 91 92 94 96 95 82 68
48 50 52 54 56 56 57 61 63 63 72 74 74 74 75 76 78 78 79 81 84 87 90 90 89 88 82 83 85 88 91 94 95 95 90 77 65 57
53 53 55 56 57 58 65 63 64 75 78 77 75 76 79 80 80 81 82 85 89 91 92 89 84 87 91 88 87 89 92 93 93 85 71 63 55 48
53 56 57 61 59 61 67 70 76 81 79 77 78 81 82 82 83 83 86 89 90 90 86 86 88 89 90 90 90 89 90 91 81 66 59 54 47 39
54 60 57 66 64 63 71 79 82 79 79 80 82 84 87 87 86 86 91 92 89 84 86 89 90 90 91 92 90 89 86 76 65 58 52 46 38 32
53 68 62 63 69 76 76 79 80 81 83 85 84 83 83 84 88 91 92 87 86 89 90 90 91 92 93 93 93 81 71 62 56 52 44 37 31 28
58 62 70 75 80 80 80 79 82 86 84 83 84 85 85 87 88 87 87 89 90 90 91 92 93 94 94 90 80 68 62 57 49 46 38 31 29 24
68 70 74 77 77 76 77 79 80 81 83 85 87 88 88 86 86 88 90 92 94 95 97 98 97 94 89 79 71 61 56 51 44 38 31 27 27 26
69 69 69 67 68 71 75 79 82 85 87 87 85 86 87 89 92 95 98 101 103 104 102 99 94 87 79 69 62 58 49 43 38 33 28 26 28 26
63 65 69 73 77 80 82 84 86 88 89 89 89 92 95 97 100 103 106 107 105 101 96 88 83 80 74 67 58 50 42 39 33 29 29 28 28 26
69 73 76 78 81 83 86 88 88 89 90 93 97 100 102 104 106 107 107 105 101 94 87 82 78 74 69 61 52 42 37 32 29 26 26 27 27 27
75 78 80 83 86 86 87 87 89 93 96 99 102 106 107 107 107 105 101 96 91 87 84 80 75 70 64 55 45 35 32 29 29 27 26 28 29 23
80 82 85 86 85 85 89 93 95 98 102 105 107 107 107 104 101 98 94 90 86 81 76 72 68 64 55 45 35 30 29 29 27 25 25 24 21 19

GFSNE_500_spd_075.txt.gz
Wind_Speed
24 24 27 28 32 34 39 39 40 41 42 43 47 40 43 47 45 43 42 46 48 50 51 51 54 55 57 60 62 65 67 70 73 75 69 70 71 73
26 27 31 32 34 36 41 42 43 47 48 46 44 50 55 50 44 38 43 45 48 49 51 54 56 58 60 63 66 67 70 72 73 72 71 73 75 76
33 33 34 35 39 40 42 45 46 52 52 47 49 44 51 45 42 43 46 48 50 52 53 57 59 61 63 66 67 69 73 74 71 72 75 77 78 78
39 37 36 39 41 40 43 49 55 54 53 49 42 42 47 48 52 47 49 52 54 56 57 60 62 64 66 67 69 74 75 72 74 76 78 77 78 79
42 42 38 42 43 48 56 57 56 52 48 51 51 47 48 52 51 52 54 55 56 59 61 64 65 66 68 70 74 75 72 75 78 79 79 78 80 80
43 47 44 45 49 46 51 52 54 44 36 42 44 48 54 54 54 55 58 59 61 63 65 67 67 69 71 73 76 74 77 79 81 83 82 81 81 80
33 35 39 41 41 44 43 48 44 43 48 49 48 54 54 59 59 59 58 61 65 66 69 70 71 73 74 73 75 78 80 83 84 85 83 80 81 84
33 37 39 38 40 43 43 45 45 46 41 57 55 57 57 63 65 65 64 67 67 71 73 75 75 74 75 78 80 82 85 87 88 86 81 82 85 86
36 38 38 41 44 45 46 50 49 53 54 57 58 58 61 63 66 65 70 73 74 76 80 78 77 77 80 81 83 86 90 90 88 83 84 87 86 88
38 39 43 45 44 45 51 53 56 57 51 61 62 55 65 69 65 73 77 79 80 84 85 80 81 82 83 86 86 91 91 90 84 85 87 87 88 90
43 45 46 48 50 51 52 58 61 58 58 60 64 61 63 68 75 84 81 85 89 88 84 85 85 86 89 89 89 94 90 85 88 89 89 90 90 93
47 49 51 53 55 56 58 59 60 60 61 67 60 66 64 69 74 80 84 89 86 86 89 90 92 92 89 89 93 90 86 89 90 91 91 91 92 93
54 56 57 57 57 58 60 61 61 56 68 72 68 74 80 88 84 87 88 87 88 91 94 94 92 92 92 91 88 88 90 91 91 92 93 93 88 81
57 57 58 59 60 62 62 64 65 66 72 77 71 80 77 83 88 86 87 90 93 94 94 92 92 93 91 88 89 90 91 90 91 92 89 85 75 65
56 56 56 57 58 60 64 67 73 76 71 75 78 76 89 93 89 88 91 91 91 92 93 95 92 90 92 93 92 93 93 91 90 88 80 72 64 55
55 56 58 59 59 61 64 65 69 73 68 75 84 90 92 89 88 89 91 92 94 93 93 92 92 94 95 96 99 98 95 92 84 77 69 60 55 49
57 60 60 60 60 64 68 67 67 74 80 87 90 88 86 89 91 94 96 95 94 93 91 94 96 98 100 102 102 97 93 83 72 65 59 52 48 44
60 63 68 67 66 69 71 76 82 85 87 87 87 88 89 91 93 93 93 94 93 94 98 101 104 105 106 104 100 93 80 72 65 58 51 46 42 37
64 68 68 67 69 69 71 76 77 78 81 84 88 89 90 91 93 94 93 96 100 102 104 108 110 110 109 104 88 84 75 66 58 52 44 39 35 31
63 65 67 70 71 72 74 76 79 81 84 88 89 91 93 93 93 95 99 102 105 108 110 112 110 107 103 95 86 73 71 61 51 43 36 30 28 29
66 68 68 70 73 75 75 79 83 86 88 88 90 91 93 95 98 101 103 108 112 114 112 107 103 99 93 88 78 63 57 54 43 35 32 31 29 32
66 69 72 75 77 81 83 86 87 87 89 89 90 94 97 100 104 108 112 113 110 107 103 98 93 88 82 76 68 59 50 45 35 31 31 31 31 28
75 78 79 81 81 83 85 86 86 87 90 93 96 100 103 106 108 109 107 103 98 95 91 86 81 76 71 65 56 43 35 33 30 33 32 29 33 26

GFSNE_500_spd_081.txt.gz
Wind_Speed
29 27 26 23 24 27 25 27 31 32 31 27 31 31 32 35 37 39 40 42 45 51 52 46 48 47 43 46 48 47 48 50 48 47 49 50 52 56
25 25 24 24 26 27 27 29 33 35 36 31 34 34 35 36 37 39 43 50 51 49 49 49 46 51 48 50 49 51 54 50 47 48 49 51 57 60
23 24 25 28 32 33 32 35 37 37 39 33 38 39 38 37 38 44 49 53 57 54 52 47 45 50 50 49 52 54 56 55 54 51 54 60 62 64
21 25 25 28 32 33 35 37 38 39 40 39 52 42 44 44 46 51 53 51 50 57 55 52 49 55 59 56 55 57 59 61 60 60 57 65 67 71
26 27 26 30 31 33 36 36 40 43 47 49 49 45 43 45 47 47 44 41 39 38 38 45 48 50 57 57 63 63 63 66 68 68 70 69 73 77
30 32 33 35 35 37 39 39 36 37 44 49 49 49 47 48 46 46 50 48 46 49 49 46 49 57 57 61 65 68 71 70 67 71 75 79 82 82
36 36 37 38 39 41 42 42 44 45 46 49 49 54 54 51 53 49 53 48 42 46 47 53 56 58 58 68 68 72 71 64 72 77 83 85 84 84
43 44 43 43 42 43 43 44 47 45 45 43 45 48 50 52 53 55 50 50 55 50 52 62 53 60 63 62 70 78 74 83 80 85 89 90 87 84
42 42 41 42 45 47 46 47 47 46 46 47 49 51 50 53 49 55 53 58 54 59 60 57 63 71 68 74 73 71 73 76 86 89 88 90 86 87
43 43 44 42 42 44 47 48 47 47 48 48 47 51 53 56 57 58 57 60 59 61 58 58 61 62 72 78 84 84 77 81 86 89 93 90 88 91
45 42 44 44 43 44 46 48 51 52 52 52 52 53 58 56 64 65 61 59 65 64 62 68 68 68 73 79 81 81 82 86 90 93 92 91 94 91
49 50 46 42 43 46 49 51 52 53 55 57 58 60 63 65 66 66 63 65 68 69 68 68 73 73 74 74 79 81 87 91 94 94 95 95 96 93
53 53 53 52 50 47 50 54 57 59 57 60 62 66 69 69 67 71 69 66 67 68 68 74 73 75 77 77 79 87 91 96 96 96 97 98 98 96
56 58 57 57 59 61 60 64 71 63 61 61 64 63 65 67 67 63 65 66 67 70 73 76 80 80 79 80 84 87 89 94 98 99 101 99 97 98
66 67 63 57 60 67 68 77 76 62 64 63 61 62 68 67 66 68 71 74 77 77 83 84 82 82 84 85 86 89 95 97 101 101 98 97 99 102
71 68 74 74 65 67 80 67 53 61 63 65 66 71 70 67 69 74 77 80 82 76 74 76 79 83 85 90 94 96 99 103 101 100 99 100 103 106
72 73 71 72 75 66 70 81 60 59 68 74 67 69 73 75 75 79 72 69 69 72 75 79 84 87 91 95 100 103 101 100 99 101 104 103 106 104
71 61 70 86 57 53 58 60 67 78 74 68 74 79 74 69 68 67 70 72 76 82 86 90 93 96 99 100 102 101 101 101 104 106 109 110 105 94
68 55 60 62 65 70 59 66 63 59 66 68 64 64 66 69 72 75 78 84 87 91 94 96 98 100 100 98 99 104 106 109 110 111 112 108 97 78
54 57 56 60 60 58 63 60 60 55 56 60 65 69 72 75 78 81 84 88 91 94 97 99 100 101 101 102 102 106 112 112 110 106 100 89 76 65
59 62 66 61 62 59 59 56 58 60 64 66 69 74 77 80 83 86 90 92 94 95 95 98 100 104 106 107 106 104 102 101 97 88 78 67 57 47
50 50 51 55 57 58 62 65 67 69 71 75 77 80 83 85 87 88 88 90 92 95 97 102 103 103 102 100 95 90 84 81 78 70 57 47 37 25
52 53 56 59 60 64 68 71 74 76 77 79 81 82 83 84 86 88 90 93 96 97 97 95 92 90 87 83 79 76 73 67 57 47 36 25 17 21

GFSNE_500_spd_084.txt.gz
Wind_Speed
32 31 28 28 28 28 30 34 34 33 32 31 32 33 33 34 34 38 40 40 40 38 38 39 43 46 48 49 49 52 48 45 50 48 47 49 50 54
33 33 34 32 30 30 31 35 35 35 33 34 35 35 38 40 40 42 43 42 40 40 42 46 50 51 53 53 50 51 48 48 52 51 50 53 55 56
21 23 25 29 31 33 34 36 36 37 40 34 37 36 41 43 40 42 44 45 44 46 48 53 54 53 55 54 52 52 53 52 56 53 54 59 61 61
22 24 25 28 29 31 35 36 36 38 42 41 39 41 45 46 47 45 47 48 48 47 47 47 46 46 45 45 45 52 52 51 58 57 54 61 68 71
27 27 29 31 31 35 37 38 39 41 43 45 46 45 46 48 51 51 50 49 48 47 48 50 51 50 49 52 48 48 56 59 64 59 60 63 64 68
30 30 31 31 31 33 35 36 38 40 42 45 48 46 49 49 48 47 49 51 50 52 51 53 52 55 50 45 48 53 59 58 63 65 70 66 66 76
34 34 36 37 38 39 41 40 43 44 45 47 50 46 50 50 49 49 48 52 55 57 57 54 51 49 51 51 52 54 62 64 65 68 75 83 78 78
34 33 35 40 42 45 47 49 51 49 48 50 48 48 49 49 47 48 50 51 53 51 51 54 54 58 53 55 60 57 58 64 64 70 73 74 76 84
38 39 38 37 40 41 45 48 47 48 50 49 49 46 47 46 46 46 49 51 53 55 57 59 60 54 58 58 58 59 69 65 67 70 69 70 80 87
43 41 43 43 43 42 43 43 46 48 49 48 47 47 48 48 50 51 52 53 56 60 64 61 65 62 63 65 66 65 69 73 73 71 72 73 75 80
46 45 46 49 50 49 50 47 45 47 49 50 52 52 52 53 54 57 58 58 62 64 62 66 65 64 66 69 71 71 67 71 77 76 76 77 80 84
51 52 53 55 54 58 58 56 54 50 52 52 49 50 52 55 59 62 59 62 62 70 71 67 73 77 75 70 69 68 69 75 79 80 79 81 85 87
56 56 56 56 57 62 67 62 59 58 56 55 56 63 66 67 75 66 66 71 67 62 66 70 70 73 72 73 75 77 76 78 76 76 79 83 86 89
63 65 63 61 64 63 64 66 59 60 61 64 64 64 68 79 72 71 68 72 71 69 68 71 74 73 72 75 78 76 73 74 77 79 83 87 92 98
60 60 64 65 64 69 72 70 67 69 70 71 75 78 82 78 88 82 82 85 74 73 74 77 74 71 77 82 80 76 75 76 81 86 91 95 97 96
62 65 67 66 64 66 68 73 74 72 80 85 78 83 83 87 81 76 67 70 72 75 77 75 71 72 74 75 75 78 82 85 89 91 93 95 97 98
72 64 72 66 64 67 74 73 88 78 87 81 90 85 66 66 64 69 75 71 71 73 70 67 67 70 74 81 85 88 91 93 96 98 101 100 99 100
75 72 58 67 64 69 69 68 78 72 73 68 72 77 75 71 64 69 70 72 71 68 70 73 76 79 83 87 91 94 97 99 101 102 102 102 102 106
68 66 74 76 78 77 78 69 70 70 60 54 55 61 67 72 71 69 69 69 70 73 76 78 81 83 87 91 95 98 96 98 99 102 106 109 110 109
75 70 73 75 80 79 64 58 62 62 65 67 63 63 65 68 68 69 71 72 75 79 81 84 88 91 93 92 93 97 102 104 107 108 108 108 106 101
45 60 52 44 42 40 42 48 52 53 56 56 57 59 62 66 70 74 78 81 86 86 88 88 89 91 94 96 99 103 107 110 109 105 100 94 86 77
41 39 40 46 52 51 50 51 53 55 57 61 63 68 70 72 74 76 79 80 82 86 87 90 93 97 99 102 103 103 101 96 92 86 81 72 65 57
47 47 49 50 51 53 56 58 60 61 62 63 65 68 71 73 76 79 80 82 86 88 91 94 97 98 97 95 91 87 82 77 73 67 62 51 38 30

GFSNE_500_spd_087.txt.gz
Wind_Speed
27 30 31 28 31 30 29 30 33 35 37 37 38 37 38 40 38 37 35 32 34 37 38 40 43 44 45 45 45 49 53 53 51 50 49 47 46 45
35 39 36 35 35 34 33 34 34 36 37 37 37 38 40 42 42 40 40 42 42 43 44 45 46 46 47 50 51 51 49 48 49 50 52 50 50 50
16 22 31 34 37 38 38 37 37 38 39 35 38 39 41 42 42 44 44 45 48 45 43 42 48 52 49 51 50 47 49 50 49 49 50 49 52 53
23 20 24 27 26 29 32 33 34 35 38 38 37 39 42 45 47 49 49 51 51 49 51 48 50 55 51 50 49 50 51 50 51 54 55 50 55 55
30 29 30 30 28 31 33 35 37 39 41 42 40 41 43 46 48 49 49 52 52 51 56 62 60 57 55 54 54 56 58 56 54 51 50 50 52 56
33 32 34 34 32 35 38 37 39 41 41 43 43 40 41 42 44 44 48 49 49 49 50 53 56 59 60 60 60 59 57 57 52 53 56 59 63 63
34 34 34 35 35 37 41 38 42 45 46 47 51 52 50 51 48 44 49 48 49 49 49 48 49 54 57 59 57 57 57 57 62 58 55 58 60 65
38 38 37 39 38 39 40 41 45 47 49 51 52 52 50 51 51 48 51 50 50 52 50 50 52 54 54 54 60 62 64 64 59 62 63 61 63 66
45 44 44 43 43 44 44 45 46 46 44 41 43 46 48 50 52 51 50 52 52 51 51 51 57 56 59 59 63 68 69 67 64 63 66 68 68 67
49 49 50 49 47 47 48 49 50 51 51 51 51 49 49 51 53 54 54 54 54 55 55 58 59 62 63 64 68 72 68 69 68 68 69 71 72 72
53 54 54 53 51 51 52 54 53 55 56 55 56 58 57 54 52 52 56 56 57 55 58 66 65 63 69 69 70 71 71 79 72 76 78 76 76 75
57 55 56 56 54 57 60 60 61 60 59 63 62 62 60 61 60 57 65 67 66 67 68 74 77 77 79 81 77 75 73 74 76 75 80 79 78 80
54 66 63 60 61 60 64 68 68 68 65 65 65 65 64 67 68 65 66 68 71 71 70 70 86 83 85 83 81 81 74 77 78 79 82 81 81 82
68 66 62 67 69 62 63 67 68 69 70 67 70 73 70 71 68 72 75 76 74 79 82 78 82 84 95 87 76 72 71 71 76 77 77 76 76 77
74 76 75 67 67 65 70 70 70 68 76 69 80 74 80 73 77 77 83 78 87 95 92 97 89 82 83 82 71 74 77 74 73 72 72 74 77 83
75 75 75 80 72 76 64 70 73 70 77 73 79 78 78 82 76 83 92 88 95 97 89 84 76 70 69 71 70 75 73 68 69 72 76 81 84 88
73 70 70 79 72 75 75 81 87 80 70 79 79 84 76 67 68 76 76 70 70 69 66 62 62 65 67 72 71 68 70 73 76 80 84 87 89 92
73 68 69 72 68 71 74 79 83 74 75 76 77 72 75 77 78 77 62 61 61 60 60 62 64 63 67 71 72 75 79 82 84 88 90 91 93 97
64 64 67 66 61 70 79 70 79 70 69 76 76 79 77 73 72 64 54 58 62 64 60 62 65 68 71 75 79 82 83 85 87 91 94 96 98 102
49 53 56 58 67 63 57 60 64 68 78 63 52 53 51 48 49 52 52 54 58 62 66 68 70 73 74 76 78 84 88 89 92 94 98 100 102 103
43 47 52 52 47 44 44 41 40 41 42 43 44 49 52 54 56 58 60 63 66 69 71 72 74 76 78 81 84 87 92 95 97 99 100 99 96 94
45 44 44 45 46 45 45 46 48 49 50 51 54 55 56 58 59 60 63 66 68 70 74 76 77 80 83 86 89 90 92 93 92 90 94 93 90 81
50 49 49 49 51 51 52 53 54 54 54 56 57 59 62 62 64 66 69 71 72 75 77 79 82 84 85 85 85 85 84 82 81 77 79 78 71 63

GFSNE_500_spd_090.txt.gz
Wind_Speed
25 26 26 28 26 27 28 26 27 28 30 31 32 34 37 38 39 39 40 40 41 40 38 36 36 37 38 40 43 46 48 46 47 47 52 48 45 47
26 29 32 33 33 30 31 36 35 33 34 34 35 34 36 38 38 39 41 43 43 44 43 42 43 43 46 47 45 48 49 50 50 50 50 49 47 48
18 20 21 22 31 36 36 39 41 39 42 37 37 36 38 39 41 44 45 45 44 45 47 47 47 48 49 49 48 51 50 52 54 52 49 48 50 53
23 23 24 23 20 25 30 32 32 33 37 36 36 36 38 38 41 42 43 45 45 46 47 49 50 52 53 53 55 56 56 61 56 55 54 55 56 57
28 29 31 31 29 31 31 31 33 35 36 39 37 38 39 38 40 42 41 45 47 48 51 51 53 54 55 53 56 58 57 57 57 59 59 61 59 55
31 33 34 34 33 35 37 37 39 41 42 45 44 41 43 38 41 40 43 45 48 50 52 54 55 54 54 55 54 54 57 55 56 59 60 58 58 57
34 33 34 34 35 37 40 38 42 44 46 48 51 49 48 47 48 47 51 50 54 55 57 55 55 56 56 56 53 52 52 54 54 57 56 59 63 64
41 40 40 41 39 39 41 41 43 45 46 48 47 48 44 42 43 44 46 50 50 49 53 55 56 56 56 56 54 54 49 58 58 56 60 64 68 70
47 47 47 46 45 46 46 47 48 50 52 51 52 51 51 49 49 48 46 44 47 52 53 52 53 54 56 58 58 58 62 62 61 64 68 70 73 73
49 50 51 52 52 52 52 54 53 54 55 57 58 56 53 51 53 55 54 52 51 54 55 56 56 57 58 57 58 62 67 69 65 72 76 75 75 78
56 57 57 59 60 61 58 59 59 58 57 59 60 60 59 60 61 60 58 60 62 60 58 58 57 61 60 64 68 67 69 72 74 80 83 85 84 79
61 63 65 66 59 62 64 66 68 70 67 63 64 63 61 65 67 66 65 71 67 65 65 67 63 70 74 75 78 76 80 80 81 83 86 86 85 82
62 63 64 65 63 63 63 66 62 72 70 69 73 68 66 71 70 70 76 75 70 76 75 71 74 76 79 76 78 83 85 89 95 94 97 91 87 84
62 66 68 70 71 71 70 69 68 63 68 71 73 79 76 77 83 69 79 81 71 73 79 81 81 80 82 87 87 89 95 96 93 96 86 78 77 73
60 63 65 68 70 70 69 70 72 72 75 78 80 81 80 81 74 67 75 79 77 74 81 89 89 86 86 87 87 88 83 75 72 71 70 67 72 78
59 61 63 66 69 72 72 74 72 77 73 71 72 83 76 77 73 80 79 79 79 75 77 82 76 70 78 77 76 69 67 65 61 62 66 68 72 75
63 64 65 66 69 73 75 77 75 74 70 77 71 76 88 85 82 78 79 78 81 83 72 70 73 74 74 72 70 63 59 59 60 62 65 69 73 78
64 64 64 65 67 67 66 69 72 77 72 76 71 70 69 77 77 77 75 74 74 71 66 67 65 63 62 61 60 59 59 62 66 70 74 75 78 83
65 64 62 62 62 59 54 53 58 63 67 60 60 67 67 64 64 69 69 66 62 61 55 51 51 53 56 59 63 65 66 68 70 73 75 78 79 85
63 62 63 62 59 56 52 52 53 55 54 51 51 53 52 51 48 47 47 47 48 50 53 55 57 60 62 64 67 70 70 72 74 77 79 82 87 92
62 61 59 59 57 55 53 50 48 47 46 45 45 46 48 49 50 52 55 55 55 56 57 59 61 62 65 68 70 74 78 79 80 83 85 86 90 93
60 60 59 59 58 56 53 52 51 50 50 50 49 51 52 53 55 56 56 58 60 61 62 63 66 67 69 72 75 77 80 84 86 90 92 92 91 87
58 59 59 59 59 57 53 52 52 51 52 52 53 54 55 56 58 59 61 63 64 66 67 69 71 73 75 78 80 82 83 85 84 80 80 78 76 74

GFSNE_500_spd_093.txt.gz
Wind_Speed
25 24 24 24 25 27 27 29 28 28 25 24 26 28 30 32 32 35 37 36 38 39 40 40 40 42 39 38 37 38 39 40 41 45 46 46 46 45
31 28 26 26 28 31 34 33 33 29 27 30 34 33 34 33 32 33 36 39 39 40 41 43 44 44 43 42 44 46 46 45 45 48 48 47 48 50
18 20 23 24 22 22 25 28 37 34 34 30 39 38 38 38 36 37 38 38 38 40 42 44 44 44 44 45 48 48 48 48 49 51 53 56 55 53
21 20 22 24 24 26 25 24 25 30 35 32 30 33 35 37 37 38 37 38 41 41 40 42 43 45 47 48 51 52 52 52 53 53 54 57 57 58
24 24 27 28 27 28 29 29 30 33 36 37 30 33 34 34 37 38 38 41 42 42 43 44 46 48 50 52 53 54 53 53 55 55 56 58 57 54
26 26 27 28 29 31 34 34 36 39 40 42 39 35 39 35 41 38 42 43 44 45 46 47 50 51 53 55 56 57 56 56 58 57 58 57 56 53
33 33 33 33 33 34 36 35 38 39 40 41 43 42 41 41 42 42 45 44 47 48 48 49 50 54 55 56 56 57 58 60 59 59 60 59 56 55
37 38 38 40 40 41 42 42 44 46 46 46 47 48 46 46 46 48 49 49 47 43 48 49 49 50 52 54 56 57 58 60 60 61 59 61 60 60
42 43 43 43 45 46 47 48 49 50 52 52 52 52 54 54 53 53 53 53 51 52 55 54 55 55 54 55 56 56 56 58 59 60 60 61 62 64
47 48 48 48 49 50 52 53 55 56 58 60 62 61 62 60 59 59 58 57 57 58 59 59 59 59 59 59 61 60 61 62 62 64 63 62 66 66
55 55 54 52 56 53 55 60 57 58 59 59 64 68 69 70 69 71 73 72 68 64 63 64 66 66 67 68 66 66 69 67 68 69 72 71 73 78
54 56 58 62 60 60 61 63 67 67 66 66 64 64 68 71 71 76 74 75 73 76 75 78 74 74 79 77 70 73 71 74 71 81 76 79 83 82
55 58 60 61 60 60 61 62 63 66 67 70 70 71 69 74 70 66 69 76 76 71 74 78 86 80 83 88 81 79 82 82 86 90 91 92 91 90
48 50 55 57 58 59 60 61 61 63 64 67 68 72 69 72 73 72 71 78 79 78 77 79 80 74 80 84 88 87 86 89 92 89 95 85 78 75
51 52 53 56 58 59 60 61 61 63 66 68 71 73 76 77 78 78 78 77 82 84 82 79 77 75 74 76 82 82 82 80 81 80 71 69 73 73
55 57 58 59 60 62 64 64 65 66 66 67 70 72 74 77 83 86 87 87 88 85 81 80 82 80 81 89 84 83 81 80 78 77 74 76 74 70
59 60 60 60 61 62 62 63 65 66 67 68 69 71 73 73 75 82 86 82 81 80 79 76 75 74 77 75 74 73 71 69 69 70 66 61 61 61
60 60 61 62 62 63 63 64 64 63 63 64 64 64 64 64 64 67 68 72 71 72 73 70 67 65 67 65 62 60 58 57 57 58 59 61 66 68
62 63 65 66 66 67 66 65 65 65 64 63 62 62 61 59 60 60 61 60 58 58 58 55 53 53 53 54 55 56 58 59 62 62 62 65 68 72
66 67 68 69 69 68 67 65 64 63 62 60 60 59 58 57 56 55 54 53 52 52 52 54 55 56 56 57 59 60 61 63 64 66 67 71 73 76
67 68 68 67 66 65 62 61 61 60 60 60 60 59 60 58 57 57 57 57 57 56 57 58 58 58 58 59 61 63 64 66 67 68 70 73 77 81
63 60 60 60 60 59 58 57 56 55 54 55 56 57 57 56 55 55 55 55 56 57 58 60 60 61 61 63 65 67 68 71 73 74 77 81 83 81
58 56 54 55 57 56 55 54 54 53 54 54 55 55 55 56 56 57 58 59 60 61 62 63 64 65 66 67 68 69 71 71 71 74 74 74 72 71